AXB228 VOHS-VOMM

Flight info

Callsign AXB228
Flight time N/A
Altitude 35000
Route BOPRI5 BOPRI V4 MMV
Aircraft B38M/M-SDE1FGHILORVWXY/HB1

Departure

Time N/A
Airport Rajiv Gandhi International Airport (VOHS)

Arrival

Time 2026-04-23 06:50
Airport Chennai International Airport (VOMM)
Time Latitude Longitude Altitude Speed Heading
2026-04-23 06:05 15.49174 79.96529 28641 ft 411 kts 173°
2026-04-23 06:05 15.46401 79.97095 28192 ft 413 kts 173°
2026-04-23 06:05 15.43567 79.97673 27736 ft 415 kts 173°
2026-04-23 06:05 15.40731 79.98251 27262 ft 416 kts 173°
2026-04-23 06:06 15.37871 79.98833 26741 ft 418 kts 173°
2026-04-23 06:06 15.35015 79.99414 26332 ft 414 kts 172°
2026-04-23 06:06 15.32246 79.99978 25943 ft 407 kts 172°
2026-04-23 06:06 15.29476 80.00541 25552 ft 400 kts 172°
2026-04-23 06:07 15.26755 80.01095 25160 ft 395 kts 172°
2026-04-23 06:07 15.24071 80.01640 24775 ft 390 kts 172°
2026-04-23 06:07 15.21420 80.02179 24397 ft 386 kts 172°
2026-04-23 06:07 15.18794 80.02712 24013 ft 382 kts 172°
2026-04-23 06:08 15.16193 80.03241 23634 ft 379 kts 171°
2026-04-23 06:08 15.13604 80.03767 23230 ft 379 kts 171°
2026-04-23 06:08 15.11016 80.04292 22790 ft 379 kts 171°
2026-04-23 06:08 15.08461 80.04810 22357 ft 378 kts 171°
2026-04-23 06:09 15.05879 80.05335 21911 ft 377 kts 171°
2026-04-23 06:09 15.03306 80.05857 21509 ft 376 kts 171°
2026-04-23 06:09 15.00738 80.06378 21179 ft 375 kts 171°
2026-04-23 06:09 14.98173 80.06898 20852 ft 375 kts 170°
2026-04-23 06:10 14.95612 80.07417 20522 ft 374 kts 170°
2026-04-23 06:10 14.93084 80.07930 20211 ft 373 kts 170°
2026-04-23 06:10 14.90538 80.08446 19975 ft 372 kts 170°
2026-04-23 06:10 14.87995 80.08961 19759 ft 372 kts 170°
2026-04-23 06:11 14.85454 80.09475 19555 ft 371 kts 170°
2026-04-23 06:11 14.82954 80.09981 19360 ft 370 kts 170°
2026-04-23 06:11 14.80418 80.10495 19153 ft 370 kts 170°
2026-04-23 06:11 14.77890 80.11007 18951 ft 369 kts 169°
2026-04-23 06:12 14.75367 80.11517 18752 ft 369 kts 169°
2026-04-23 06:12 14.72862 80.12024 18560 ft 369 kts 169°
2026-04-23 06:12 14.67815 80.13045 18155 ft 369 kts 169°
2026-04-23 06:13 14.65330 80.13548 17938 ft 369 kts 169°
2026-04-23 06:13 14.62800 80.14059 17708 ft 368 kts 169°
2026-04-23 06:13 14.60287 80.14567 17467 ft 367 kts 168°
2026-04-23 06:13 14.57777 80.15074 17250 ft 367 kts 168°
2026-04-23 06:14 14.55271 80.15580 17020 ft 367 kts 168°
2026-04-23 06:14 14.52740 80.16091 16734 ft 382 kts 168°
2026-04-23 06:14 14.50104 80.16624 16481 ft 389 kts 168°
2026-04-23 06:14 14.47427 80.17163 16248 ft 393 kts 168°
2026-04-23 06:15 14.44741 80.17706 16016 ft 393 kts 168°
2026-04-23 06:15 14.42050 80.18248 15796 ft 392 kts 168°
2026-04-23 06:15 14.39371 80.18789 15582 ft 391 kts 168°
2026-04-23 06:15 14.36695 80.19328 15366 ft 390 kts 167°
2026-04-23 06:16 14.34032 80.19865 15145 ft 389 kts 167°
2026-04-23 06:16 14.31399 80.20395 14936 ft 388 kts 167°
2026-04-23 06:16 14.28748 80.20930 14724 ft 387 kts 167°
2026-04-23 06:16 14.26104 80.21463 14510 ft 386 kts 167°
2026-04-23 06:17 14.23470 80.21993 14300 ft 385 kts 167°
2026-04-23 06:17 14.20837 80.22524 14092 ft 384 kts 167°
2026-04-23 06:17 14.18245 80.23045 13873 ft 383 kts 167°
2026-04-23 06:17 14.15617 80.23574 13678 ft 383 kts 167°
2026-04-23 06:18 14.13003 80.24100 13440 ft 382 kts 167°
2026-04-23 06:18 14.10393 80.24625 13207 ft 380 kts 167°
2026-04-23 06:18 14.07802 80.25146 12987 ft 379 kts 167°
2026-04-23 06:18 14.05214 80.25666 12743 ft 377 kts 167°
2026-04-23 06:19 14.02643 80.26183 12519 ft 376 kts 167°
2026-04-23 06:19 14.00155 80.26683 12297 ft 374 kts 167°
2026-04-23 06:19 13.97605 80.27195 12067 ft 373 kts 167°
2026-04-23 06:19 13.95060 80.27706 11849 ft 371 kts 167°
2026-04-23 06:20 13.92525 80.28216 11629 ft 370 kts 167°
2026-04-23 06:20 13.90003 80.28722 11404 ft 368 kts 167°
2026-04-23 06:20 13.87497 80.29225 11187 ft 367 kts 167°
2026-04-23 06:20 13.84994 80.29728 10975 ft 365 kts 167°
2026-04-23 06:21 13.82503 80.30228 10757 ft 363 kts 167°
2026-04-23 06:21 13.80023 80.30725 10551 ft 362 kts 167°
2026-04-23 06:21 13.77555 80.31220 10331 ft 361 kts 167°
2026-04-23 06:21 13.75123 80.31708 10127 ft 359 kts 167°
2026-04-23 06:22 13.72667 80.32200 9917 ft 358 kts 167°
2026-04-23 06:22 13.70228 80.32689 9841 ft 357 kts 167°
2026-04-23 06:22 13.67782 80.33180 9838 ft 358 kts 167°
2026-04-23 06:22 13.65329 80.33667 9841 ft 358 kts 168°
2026-04-23 06:23 13.62876 80.33646 9837 ft 361 kts 191°
2026-04-23 06:23 13.60435 80.33001 9809 ft 363 kts 192°
2026-04-23 06:23 13.57981 80.32390 9564 ft 361 kts 192°
2026-04-23 06:23 13.55539 80.31793 9303 ft 359 kts 192°
2026-04-23 06:24 13.53108 80.31204 9048 ft 358 kts 192°
2026-04-23 06:24 13.50683 80.30618 8854 ft 356 kts 191°
2026-04-23 06:24 13.48297 80.30042 8843 ft 356 kts 191°
2026-04-23 06:24 13.45875 80.29458 8860 ft 357 kts 191°
2026-04-23 06:25 13.43452 80.28874 8822 ft 356 kts 191°
2026-04-23 06:25 13.41036 80.28291 8849 ft 357 kts 191°
2026-04-23 06:25 13.38614 80.27707 8832 ft 357 kts 191°
2026-04-23 06:25 13.36194 80.27124 8837 ft 357 kts 191°
2026-04-23 06:26 13.33808 80.26550 8841 ft 357 kts 191°
2026-04-23 06:26 13.31379 80.25964 8839 ft 357 kts 191°
2026-04-23 06:26 13.28950 80.25380 8834 ft 357 kts 191°
2026-04-23 06:26 13.26528 80.24797 8848 ft 357 kts 191°
2026-04-23 06:27 13.24562 80.24323 8827 ft 357 kts 191°
2026-04-23 06:27 13.22159 80.23745 8618 ft 350 kts 191°
2026-04-23 06:27 13.19848 80.23188 8410 ft 329 kts 191°
2026-04-23 06:27 13.17684 80.22667 8210 ft 309 kts 191°
2026-04-23 06:28 13.15642 80.22176 8023 ft 296 kts 191°
2026-04-23 06:28 13.13628 80.21692 7779 ft 296 kts 191°
2026-04-23 06:28 13.11703 80.21020 7522 ft 297 kts 208°
2026-04-23 06:28 13.10174 80.19606 7276 ft 299 kts 234°
2026-04-23 06:29 13.09352 80.17660 7034 ft 299 kts 257°
2026-04-23 06:29 13.08856 80.15587 6866 ft 299 kts 254°
2026-04-23 06:29 13.08257 80.13540 6854 ft 300 kts 252°
2026-04-23 06:29 13.07605 80.11508 6845 ft 300 kts 251°
2026-04-23 06:30 13.06923 80.09486 6756 ft 299 kts 250°
2026-04-23 06:30 13.06249 80.07537 6479 ft 288 kts 249°
2026-04-23 06:30 13.05582 80.05641 6221 ft 276 kts 248°
2026-04-23 06:30 13.04903 80.03826 5795 ft 271 kts 248°
2026-04-23 06:31 13.04446 80.02624 5391 ft 273 kts 248°
2026-04-23 06:31 13.03755 80.00814 4854 ft 268 kts 248°
2026-04-23 06:31 13.02863 79.98477 4032 ft 262 kts 247°
2026-04-23 06:31 13.02416 79.97305 3621 ft 258 kts 248°
2026-04-23 06:32 13.01778 79.95635 3041 ft 251 kts 246°
2026-04-23 06:32 13.01149 79.93990 2373 ft 247 kts 246°
2026-04-23 06:32 13.00391 79.92418 1791 ft 240 kts 227°
2026-04-23 06:32 12.99108 79.91573 1858 ft 205 kts 194°
2026-04-23 06:33 12.97751 79.91531 2231 ft 199 kts 169°
2026-04-23 06:33 12.96468 79.92058 2268 ft 203 kts 147°
2026-04-23 06:33 12.95375 79.92939 2306 ft 192 kts 142°
2026-04-23 06:33 12.94362 79.93802 2306 ft 188 kts 141°
2026-04-23 06:34 12.93370 79.94668 2318 ft 186 kts 140°
2026-04-23 06:34 12.92470 79.95626 2297 ft 187 kts 122°
2026-04-23 06:34 12.92076 79.96874 2320 ft 190 kts 97°
2026-04-23 06:34 12.92163 79.98228 2308 ft 188 kts 81°
2026-04-23 06:35 12.92510 79.99493 2319 ft 180 kts 73°
2026-04-23 06:35 12.92941 80.00677 2297 ft 174 kts 71°
2026-04-23 06:35 12.93371 80.01822 2147 ft 174 kts 72°
2026-04-23 06:35 12.93804 80.02978 1985 ft 172 kts 72°
2026-04-23 06:36 12.94233 80.04125 1792 ft 172 kts 71°
2026-04-23 06:36 12.94667 80.05274 1834 ft 173 kts 72°
2026-04-23 06:36 12.95095 80.06429 1730 ft 172 kts 71°
2026-04-23 06:36 12.95523 80.07572 1543 ft 171 kts 71°
2026-04-23 06:37 12.95949 80.08707 1325 ft 171 kts 71°
2026-04-23 06:37 12.96370 80.09835 1108 ft 171 kts 71°
2026-04-23 06:37 12.96789 80.10960 920 ft 168 kts 73°
2026-04-23 06:37 12.97186 80.12012 810 ft 149 kts 73°
2026-04-23 06:38 12.97550 80.12988 564 ft 141 kts 72°
2026-04-23 06:38 12.97894 80.13931 452 ft 144 kts 73°
2026-04-23 06:38 12.98262 80.14876 197 ft 138 kts 73°
2026-04-23 06:38 12.98588 80.15762 62 ft 134 kts 72°
2026-04-23 06:39 12.98968 80.16737 697 ft 130 kts 71°
2026-04-23 06:39 12.99318 80.17573 1495 ft 139 kts 72°
2026-04-23 06:39 12.99659 80.18568 1153 ft 160 kts 76°
2026-04-23 06:39 13.00007 80.19773 468 ft 187 kts 75°
2026-04-23 06:40 13.00352 80.21036 465 ft 199 kts 76°
2026-04-23 06:40 13.00701 80.22386 1786 ft 195 kts 77°
2026-04-23 06:40 13.01058 80.23667 2691 ft 185 kts 77°
2026-04-23 06:40 13.01601 80.25088 2327 ft 252 kts 56°
2026-04-23 06:41 13.03047 80.26352 2295 ft 294 kts 27°
2026-04-23 06:41 13.05111 80.26933 2291 ft 330 kts
2026-04-23 06:41 13.07496 80.26640 2286 ft 361 kts 342°
2026-04-23 06:41 13.09734 80.25417 2556 ft 347 kts 317°
2026-04-23 06:42 13.11149 80.23629 3168 ft 302 kts 294°
2026-04-23 06:42 13.11632 80.21698 3650 ft 262 kts 270°
2026-04-23 06:42 13.11312 80.20021 3920 ft 230 kts 240°
2026-04-23 06:42 13.10378 80.18809 4002 ft 205 kts 221°
2026-04-23 06:43 13.09369 80.17824 3901 ft 195 kts 221°
2026-04-23 06:43 13.08535 80.16756 3604 ft 198 kts 242°
2026-04-23 06:43 13.08011 80.15438 3304 ft 201 kts 249°
2026-04-23 06:43 13.07557 80.14063 3001 ft 205 kts 250°
2026-04-23 06:44 13.07107 80.12648 2637 ft 211 kts 250°
2026-04-23 06:44 13.06656 80.11246 2589 ft 204 kts 250°
2026-04-23 06:44 13.06214 80.09868 2397 ft 200 kts 250°
2026-04-23 06:44 13.05800 80.08578 2344 ft 184 kts 249°
2026-04-23 06:45 13.05415 80.07358 2248 ft 178 kts 250°
2026-04-23 06:45 13.04944 80.06151 1896 ft 184 kts 234°
2026-04-23 06:45 13.04113 80.05178 1780 ft 178 kts 214°
2026-04-23 06:45 13.03017 80.04757 1710 ft 159 kts 181°
2026-04-23 06:46 13.01982 80.04921 1715 ft 149 kts 164°
2026-04-23 06:46 13.00995 80.05223 1681 ft 148 kts 163°
2026-04-23 06:46 13.00038 80.05582 1613 ft 149 kts 158°
2026-04-23 06:46 12.99116 80.06068 1523 ft 146 kts 147°
2026-04-23 06:47 12.98447 80.06820 1521 ft 143 kts 127°
2026-04-23 06:47 12.97877 80.07648 1292 ft 136 kts 124°
2026-04-23 06:47 12.97503 80.08510 1238 ft 137 kts 113°
2026-04-23 06:47 12.97245 80.09455 1113 ft 138 kts 106°
2026-04-23 06:48 12.97132 80.10428 947 ft 139 kts 86°
2026-04-23 06:48 12.97302 80.11405 853 ft 139 kts 81°
2026-04-23 06:48 12.97542 80.12371 657 ft 139 kts 78°
2026-04-23 06:48 12.97838 80.13306 528 ft 153 kts 76°
2026-04-23 06:49 12.98136 80.14572 200 ft 191 kts 74°
2026-04-23 06:49 12.98583 80.15715 85 ft 155 kts 74°
2026-04-23 06:49 12.98934 80.16636 54 ft 121 kts 71°
2026-04-23 06:49 12.99135 80.17218 50 ft 54 kts 69°
2026-04-23 06:50 12.99196 80.17376 55 ft 8 kts 69°
2026-04-23 06:50 12.99243 80.17503 53 ft 27 kts 70°
2026-04-23 06:50 12.99282 80.17625 56 ft 16 kts 88°
2026-04-23 06:51 12.99059 80.17736 58 ft 0 kts 135°